NOAA 17 DEB, 48616

Orbit data source: Space-Track

NOAA 17 DEB, 48616 is space debris in SSO originally from a launch on Mon, 24 Jun 2002 UTC launched from the Air Force Western Test Range (AFWTR). Debris objects in space refer to the collection of defunct objects orbiting the Earth. Examples of debris include non-operational satellites, rocket bodies, and fragments generated from explosions, collisions, or faulty payload assembly.

Loading next visibility...
Identifier
48616, 2002-032AH
Orbit
SSO
Country
Flag of USUS
Related business
Manufacturer
Unknown
Mission
Spacecraft
Bus & Motor
Unknown
Mass
Unknown
Launch date (UTC)
2002-06-24 (24 years ago)
Launch vehicle
Unknown
Launch site
Air Force Western Test Range (AFWTR)
Object type
Payload
Rocket body
Debris
Shape & HBR
Unknown shape, 0.1 m
Radar Cross Section
Medium (>0.1 m² and <1 m²)

Expand to show TLE details & history
Last TLE update: 2 days ago

TLE from 2 days ago
0 NOAA 17 DEB
1 48616U 02032AH  26171.40186854  .00006794  00000-0  14533-2 0  9999
2 48616  98.7125 157.6803 0005313 187.4985 172.6135 14.59099523271173
Epoch: 2026-06-20T09:38Z
TLE epoch observation values (Epoch: 2026-06-20T09:38:41.441Z)
Latitude
0.00002°
Longitude
104.39061°
Altitude
702.779 km
Speed
7.503 km/s
True Right ascension
10h 30m 43s
True Declination
0° 00' 00"
Sunlit
Object was in daylight at epoch
Visualization orbit readout
Latitude
Unknown
Longitude
Unknown
Altitude
Unknown
Speed
Unknown
Apparent Right ascension
Unknown
Apparent Declination
Unknown
Sunlit
N/A
Visualization observer readout
Local Sidereal Time
23:18:26
Azimuth
Unknown
Elevation
Unknown
Doppler factor
Unknown
Orbital elements
Apogee altitude
696.947 km
Perigee altitude
689.433 km
Semi-major axis
7,071.327 km
Eccentricity
0.00053
Inclination
98.7125°
RAAN
157.6803°
Arg. of periapsis
187.4985°
True anomaly
172.62132°
Mean anomaly
172.6135°
Eccentric anomaly
172.61741°
Mean motion
3.64999 °/min
Orbital period
98.63 mins
BSTAR
0.0014533
Loading maneuver chart data...
Computing Atmospheric mass density...

Documentation

Showing up to 5 results
|